Time,TemperatureF,DewpointF,PressureIn,WindDirection,WindDirectionDegrees,WindSpeedMPH,WindSpeedGustMPH,Humidity,HourlyPrecipIn,Conditions,Clouds,dailyrainin,SoftwareType,DateUTC
2013-03-06 00:00:00,26.4,18.7,29.00,North,0,3.0,4.0,72,0.00,,,0.00,meteohub,2013-03-06 05:00:00,
2013-03-06 00:05:00,26.4,18.7,29.00,NW,315,2.0,5.0,72,0.00,,,0.00,meteohub,2013-03-06 05:05:00,
2013-03-06 00:10:00,26.4,18.7,29.00,NNE,22,2.0,6.0,72,0.00,,,0.00,meteohub,2013-03-06 05:10:00,
2013-03-06 00:15:00,26.4,18.3,29.00,NE,45,2.0,6.0,71,0.00,,,0.00,meteohub,2013-03-06 05:15:00,
2013-03-06 00:20:00,26.4,18.7,29.00,NE,45,2.0,4.0,72,0.00,,,0.00,meteohub,2013-03-06 05:20:00,
2013-03-06 00:25:00,26.4,18.7,29.00,East,90,3.0,5.0,72,0.00,,,0.00,meteohub,2013-03-06 05:25:00,
2013-03-06 00:30:00,26.4,19.0,29.00,NE,45,1.0,5.0,73,0.00,,,0.00,meteohub,2013-03-06 05:30:00,
2013-03-06 00:35:00,26.2,18.9,29.00,North,0,3.0,5.0,73,0.00,,,0.00,meteohub,2013-03-06 05:35:00,
2013-03-06 00:40:00,26.4,19.2,29.00,NW,315,2.0,6.0,74,0.00,,,0.00,meteohub,2013-03-06 05:40:00,
2013-03-06 00:45:00,26.2,19.0,29.00,NW,315,2.0,6.0,74,0.00,,,0.00,meteohub,2013-03-06 05:45:00,
2013-03-06 00:50:00,26.2,19.4,29.03,East,90,2.0,8.0,75,0.00,,,0.00,meteohub,2013-03-06 05:50:00,
2013-03-06 00:55:00,26.2,19.4,29.03,East,90,2.0,8.0,75,0.00,,,0.00,meteohub,2013-03-06 05:55:00,
2013-03-06 01:00:00,26.2,19.4,29.03,NE,45,1.0,6.0,75,0.00,,,0.00,meteohub,2013-03-06 06:00:00,
2013-03-06 01:05:00,26.2,19.8,29.00,ENE,68,3.0,6.0,76,0.00,,,0.00,meteohub,2013-03-06 06:05:00,
2013-03-06 01:10:00,26.4,20.1,29.00,NW,315,2.0,6.0,77,0.00,,,0.00,meteohub,2013-03-06 06:10:00,
2013-03-06 01:15:00,26.6,20.3,29.00,WNW,292,3.0,7.0,77,0.00,,,0.00,meteohub,2013-03-06 06:15:00,
2013-03-06 01:21:00,26.8,20.5,29.00,North,0,2.0,7.0,77,0.00,,,0.00,meteohub,2013-03-06 06:21:00,
2013-03-06 01:26:00,26.8,20.5,29.03,NE,45,1.0,6.0,77,0.00,,,0.00,meteohub,2013-03-06 06:26:00,
2013-03-06 01:31:00,26.8,20.5,29.03,NE,45,1.0,6.0,77,0.00,,,0.00,meteohub,2013-03-06 06:31:00,
2013-03-06 01:36:00,27.0,20.7,29.03,WNW,292,2.0,4.0,77,0.00,,,0.00,meteohub,2013-03-06 06:36:00,
2013-03-06 01:41:00,27.0,21.0,29.03,NNW,338,3.0,4.0,78,0.00,,,0.00,meteohub,2013-03-06 06:41:00,
2013-03-06 01:46:00,27.1,21.2,29.03,North,0,2.0,9.0,78,0.00,,,0.00,meteohub,2013-03-06 06:46:00,
2013-03-06 01:51:00,27.1,20.8,29.03,ESE,112,2.0,9.0,77,0.00,,,0.00,meteohub,2013-03-06 06:51:00,
2013-03-06 01:56:00,27.1,20.8,29.03,ENE,68,2.0,9.0,77,0.00,,,0.00,meteohub,2013-03-06 06:56:00,
2013-03-06 02:01:00,27.1,20.8,29.03,North,0,1.0,6.0,77,0.00,,,0.00,meteohub,2013-03-06 07:01:00,
2013-03-06 02:06:00,27.1,20.8,29.03,North,0,2.0,6.0,77,0.00,,,0.00,meteohub,2013-03-06 07:06:00,
2013-03-06 02:11:00,27.1,20.7,29.03,NE,45,0.0,5.0,76,0.00,,,0.00,meteohub,2013-03-06 07:11:00,
2013-03-06 02:16:00,27.3,21.0,29.03,NNE,22,4.0,5.0,77,0.00,,,0.00,meteohub,2013-03-06 07:16:00,
2013-03-06 02:21:00,27.5,21.2,29.03,NE,45,3.0,4.0,77,0.00,,,0.00,meteohub,2013-03-06 07:21:00,
2013-03-06 02:26:00,27.5,21.2,29.03,North,0,0.0,7.0,77,0.00,,,0.00,meteohub,2013-03-06 07:26:00,
2013-03-06 02:31:00,27.5,21.2,29.03,East,90,1.0,7.0,77,0.00,,,0.00,meteohub,2013-03-06 07:31:00,
2013-03-06 02:36:00,27.7,21.4,29.03,NE,45,4.0,7.0,77,0.00,,,0.00,meteohub,2013-03-06 07:36:00,
2013-03-06 02:41:00,27.7,21.4,29.03,NE,45,2.0,4.0,77,0.00,,,0.00,meteohub,2013-03-06 07:41:00,
2013-03-06 02:46:00,27.7,21.4,29.03,NE,45,2.0,4.0,77,0.00,,,0.00,meteohub,2013-03-06 07:46:00,
2013-03-06 02:53:00,27.9,21.4,29.03,North,0,6.0,6.0,76,0.00,,,0.00,meteohub,2013-03-06 07:53:00,
2013-03-06 02:58:00,27.9,21.4,29.03,NE,45,2.0,6.0,76,0.00,,,0.00,meteohub,2013-03-06 07:58:00,
2013-03-06 03:03:00,28.0,21.6,29.03,NE,45,2.0,6.0,76,0.00,,,0.00,meteohub,2013-03-06 08:03:00,
2013-03-06 03:08:00,28.0,21.6,29.03,NE,45,3.0,6.0,76,0.00,,,0.00,meteohub,2013-03-06 08:08:00,
2013-03-06 03:13:00,27.9,21.4,29.03,West,270,4.0,4.0,76,0.00,,,0.00,meteohub,2013-03-06 08:13:00,
2013-03-06 03:18:00,27.9,21.4,29.03,West,270,4.0,4.0,76,0.00,,,0.00,meteohub,2013-03-06 08:18:00,
2013-03-06 03:24:00,27.9,21.4,29.03,North,0,2.0,4.0,76,0.00,,,0.00,meteohub,2013-03-06 08:24:00,
2013-03-06 03:29:00,27.9,21.4,29.06,East,90,2.0,4.0,76,0.00,,,0.00,meteohub,2013-03-06 08:29:00,
2013-03-06 03:34:00,27.9,21.4,29.06,ENE,68,2.0,2.0,76,0.00,,,0.00,meteohub,2013-03-06 08:34:00,
2013-03-06 03:39:00,27.9,21.4,29.03,NNW,338,4.0,4.0,76,0.00,,,0.00,meteohub,2013-03-06 08:39:00,
2013-03-06 03:44:00,27.9,21.4,29.03,North,0,2.0,4.0,76,0.00,,,0.00,meteohub,2013-03-06 08:44:00,
2013-03-06 03:49:00,27.9,21.4,29.03,NE,45,3.0,4.0,76,0.00,,,0.00,meteohub,2013-03-06 08:49:00,
2013-03-06 03:54:00,27.9,21.4,29.06,North,0,2.0,4.0,76,0.00,,,0.00,meteohub,2013-03-06 08:54:00,
2013-03-06 03:59:00,27.7,21.2,29.06,NE,45,1.0,4.0,76,0.00,,,0.00,meteohub,2013-03-06 08:59:00,
2013-03-06 04:04:00,27.7,21.4,29.06,North,0,1.0,5.0,77,0.00,,,0.00,meteohub,2013-03-06 09:04:00,
2013-03-06 04:09:00,27.7,21.4,29.06,NNW,338,4.0,6.0,77,0.00,,,0.00,meteohub,2013-03-06 09:09:00,
2013-03-06 04:14:00,27.7,21.4,29.06,East,90,3.0,6.0,77,0.00,,,0.00,meteohub,2013-03-06 09:14:00,
2013-03-06 04:19:00,27.7,21.4,29.06,East,90,2.0,6.0,77,0.00,,,0.00,meteohub,2013-03-06 09:19:00,
2013-03-06 04:24:00,27.7,21.4,29.06,North,0,0.0,6.0,77,0.00,,,0.00,meteohub,2013-03-06 09:24:00,
2013-03-06 04:29:00,27.7,21.4,29.06,North,0,4.0,6.0,77,0.00,,,0.00,meteohub,2013-03-06 09:29:00,
2013-03-06 04:34:00,27.5,21.2,29.06,NNW,338,2.0,4.0,77,0.00,,,0.00,meteohub,2013-03-06 09:34:00,
2013-03-06 04:39:00,27.5,21.6,29.06,WSW,248,2.0,7.0,78,0.00,,,0.00,meteohub,2013-03-06 09:39:00,
2013-03-06 04:44:00,27.5,21.2,29.06,ENE,68,1.0,7.0,77,0.00,,,0.00,meteohub,2013-03-06 09:44:00,
2013-03-06 04:49:00,27.5,21.6,29.06,NE,45,2.0,6.0,78,0.00,,,0.00,meteohub,2013-03-06 09:49:00,
2013-03-06 04:54:00,27.5,21.6,29.06,North,0,3.0,5.0,78,0.00,,,0.00,meteohub,2013-03-06 09:54:00,
2013-03-06 04:59:00,27.5,21.9,29.06,NNE,22,2.0,5.0,79,0.00,,,0.00,meteohub,2013-03-06 09:59:00,
2013-03-06 05:04:00,27.7,22.1,29.06,North,0,4.0,5.0,79,0.00,,,0.00,meteohub,2013-03-06 10:04:00,
2013-03-06 05:09:00,27.7,22.1,29.06,NW,315,2.0,5.0,79,0.00,,,0.00,meteohub,2013-03-06 10:09:00,
2013-03-06 05:14:00,27.7,22.1,29.06,NE,45,1.0,5.0,79,0.00,,,0.00,meteohub,2013-03-06 10:14:00,
2013-03-06 05:20:00,27.7,22.1,29.06,East,90,2.0,4.0,79,0.00,,,0.00,meteohub,2013-03-06 10:20:00,
2013-03-06 05:25:00,27.9,22.3,29.09,NE,45,2.0,5.0,79,0.00,,,0.00,meteohub,2013-03-06 10:25:00,
2013-03-06 05:30:00,27.9,22.3,29.09,NE,45,3.0,6.0,79,0.00,,,0.00,meteohub,2013-03-06 10:30:00,
2013-03-06 05:35:00,27.9,22.3,29.09,NE,45,1.0,6.0,79,0.00,,,0.00,meteohub,2013-03-06 10:35:00,
2013-03-06 05:40:00,27.9,22.3,29.09,North,0,2.0,5.0,79,0.00,,,0.00,meteohub,2013-03-06 10:40:00,
2013-03-06 05:45:00,27.9,22.3,29.09,North,0,5.0,5.0,79,0.00,,,0.00,meteohub,2013-03-06 10:45:00,
2013-03-06 05:50:00,27.7,22.1,29.09,East,90,2.0,5.0,79,0.00,,,0.00,meteohub,2013-03-06 10:50:00,
2013-03-06 05:55:00,27.7,21.7,29.12,NW,315,4.0,5.0,78,0.00,,,0.00,meteohub,2013-03-06 10:55:00,
2013-03-06 06:00:00,27.5,21.9,29.12,North,0,3.0,4.0,79,0.00,,,0.00,meteohub,2013-03-06 11:00:00,
2013-03-06 06:05:00,27.3,21.4,29.15,NW,315,1.0,4.0,78,0.00,,,0.00,meteohub,2013-03-06 11:05:00,
2013-03-06 06:10:00,27.3,21.7,29.15,NE,45,5.0,5.0,79,0.00,,,0.00,meteohub,2013-03-06 11:10:00,
2013-03-06 06:15:00,27.3,21.7,29.15,NE,45,2.0,5.0,79,0.00,,,0.00,meteohub,2013-03-06 11:15:00,
2013-03-06 06:20:00,27.1,21.7,29.09,NNE,22,3.0,5.0,80,0.00,,,0.00,meteohub,2013-03-06 11:20:00,
2013-03-06 06:25:00,27.1,21.6,29.09,WSW,248,2.0,5.0,79,0.00,,,0.00,meteohub,2013-03-06 11:25:00,
2013-03-06 06:30:00,27.1,21.7,29.09,NE,45,3.0,5.0,80,0.00,,,0.00,meteohub,2013-03-06 11:30:00,
2013-03-06 06:35:00,27.0,21.6,29.09,NW,315,4.0,4.0,80,0.00,,,0.00,meteohub,2013-03-06 11:35:00,
2013-03-06 06:40:00,27.0,21.6,29.09,NW,315,6.0,6.0,80,0.00,,,0.00,meteohub,2013-03-06 11:40:00,
2013-03-06 06:45:00,27.0,21.6,29.09,NNE,22,0.0,6.0,80,0.00,,,0.00,meteohub,2013-03-06 11:45:00,
2013-03-06 06:50:00,27.0,21.6,29.15,NNE,22,3.0,6.0,80,0.00,,,0.00,meteohub,2013-03-06 11:50:00,
2013-03-06 06:55:00,27.0,21.6,29.15,East,90,2.0,6.0,80,0.00,,,0.00,meteohub,2013-03-06 11:55:00,
2013-03-06 07:00:00,26.8,21.4,29.15,WNW,292,2.0,5.0,80,0.00,,,0.00,meteohub,2013-03-06 12:00:00,
2013-03-06 07:05:00,26.8,21.4,29.15,East,90,2.0,5.0,80,0.00,,,0.00,meteohub,2013-03-06 12:05:00,
2013-03-06 07:10:00,26.8,21.4,29.15,NE,45,2.0,4.0,80,0.00,,,0.00,meteohub,2013-03-06 12:10:00,
2013-03-06 07:15:00,27.0,21.9,29.15,NNW,338,2.0,4.0,81,0.00,,,0.00,meteohub,2013-03-06 12:15:00,
2013-03-06 07:20:00,27.0,21.9,29.15,ENE,68,3.0,4.0,81,0.00,,,0.00,meteohub,2013-03-06 12:20:00,
2013-03-06 07:25:00,27.1,22.1,29.15,North,0,1.0,4.0,81,0.00,,,0.00,meteohub,2013-03-06 12:25:00,
2013-03-06 07:30:00,27.3,22.3,29.15,NW,315,1.0,4.0,81,0.00,,,0.00,meteohub,2013-03-06 12:30:00,
2013-03-06 07:35:00,27.5,22.8,29.15,East,90,1.0,4.0,82,0.00,,,0.00,meteohub,2013-03-06 12:35:00,
2013-03-06 07:40:00,27.7,23.0,29.15,NNE,22,1.0,4.0,82,0.00,,,0.00,meteohub,2013-03-06 12:40:00,
2013-03-06 07:45:00,27.9,22.8,29.15,NW,315,1.0,4.0,81,0.00,,,0.00,meteohub,2013-03-06 12:45:00,
2013-03-06 07:50:00,28.2,23.2,29.18,North,0,0.0,4.0,81,0.00,,,0.00,meteohub,2013-03-06 12:50:00,
2013-03-06 07:55:00,28.8,23.4,29.18,NNW,338,0.0,3.0,80,0.00,,,0.00,meteohub,2013-03-06 12:55:00,
2013-03-06 08:00:00,29.3,23.9,29.18,NE,45,0.0,3.0,80,0.00,,,0.00,meteohub,2013-03-06 13:00:00,
2013-03-06 08:05:00,29.5,24.1,29.18,NE,45,3.0,3.0,80,0.00,,,0.00,meteohub,2013-03-06 13:05:00,
2013-03-06 08:10:00,30.2,24.8,29.18,NNW,338,2.0,3.0,80,0.00,,,0.00,meteohub,2013-03-06 13:10:00,
2013-03-06 08:15:00,30.7,24.6,29.18,NE,45,3.0,3.0,78,0.00,,,0.00,meteohub,2013-03-06 13:15:00,
2013-03-06 08:20:00,31.3,24.6,29.18,NE,45,1.0,3.0,76,0.00,,,0.00,meteohub,2013-03-06 13:20:00,
2013-03-06 08:26:00,32.2,25.2,29.18,East,90,2.0,3.0,75,0.00,,,0.00,meteohub,2013-03-06 13:26:00,
2013-03-06 08:30:00,32.7,25.0,29.18,ENE,68,1.0,4.0,73,0.00,,,0.00,meteohub,2013-03-06 13:30:00,
2013-03-06 08:35:00,33.3,24.6,29.18,North,0,1.0,6.0,70,0.00,,,0.00,meteohub,2013-03-06 13:35:00,
2013-03-06 08:40:00,34.3,25.3,29.18,ENE,68,2.0,6.0,69,0.00,,,0.00,meteohub,2013-03-06 13:40:00,
2013-03-06 08:46:00,34.7,24.6,29.18,ENE,68,4.0,6.0,66,0.00,,,0.00,meteohub,2013-03-06 13:46:00,
2013-03-06 08:51:00,34.7,24.3,29.18,North,0,1.0,5.0,65,0.00,,,0.00,meteohub,2013-03-06 13:51:00,
2013-03-06 08:56:00,34.9,23.2,29.18,North,0,2.0,5.0,62,0.00,,,0.00,meteohub,2013-03-06 13:56:00,
2013-03-06 09:01:00,35.2,22.8,29.18,North,0,5.0,5.0,60,0.00,,,0.00,meteohub,2013-03-06 14:01:00,
2013-03-06 09:06:00,35.4,23.4,29.21,ENE,68,1.0,5.0,61,0.00,,,0.00,meteohub,2013-03-06 14:06:00,
2013-03-06 09:11:00,36.0,23.5,29.21,NW,315,2.0,5.0,60,0.00,,,0.00,meteohub,2013-03-06 14:11:00,
2013-03-06 09:16:00,36.9,23.9,29.21,SSW,202,2.0,5.0,59,0.00,,,0.00,meteohub,2013-03-06 14:16:00,
2013-03-06 09:21:00,37.0,22.8,29.21,East,90,1.0,4.0,56,0.00,,,0.00,meteohub,2013-03-06 14:21:00,
2013-03-06 09:26:00,37.4,23.2,29.21,NE,45,1.0,4.0,56,0.00,,,0.00,meteohub,2013-03-06 14:26:00,
2013-03-06 09:31:00,37.8,23.0,29.21,East,90,1.0,5.0,55,0.00,,,0.00,meteohub,2013-03-06 14:31:00,
2013-03-06 09:36:00,38.3,23.2,29.23,ENE,68,2.0,5.0,54,0.00,,,0.00,meteohub,2013-03-06 14:36:00,
2013-03-06 09:41:00,39.2,24.1,29.23,NE,45,2.0,5.0,54,0.00,,,0.00,meteohub,2013-03-06 14:41:00,
2013-03-06 09:46:00,39.9,24.3,29.23,NNW,338,2.0,3.0,53,0.00,,,0.00,meteohub,2013-03-06 14:46:00,
2013-03-06 09:51:00,40.5,24.3,29.23,NNW,338,2.0,3.0,52,0.00,,,0.00,meteohub,2013-03-06 14:51:00,
2013-03-06 09:56:00,41.5,24.8,29.23,NE,45,1.0,3.0,51,0.00,,,0.00,meteohub,2013-03-06 14:56:00,
2013-03-06 10:01:00,41.0,22.8,29.23,ENE,68,2.0,4.0,48,0.00,,,0.00,meteohub,2013-03-06 15:01:00,
2013-03-06 10:06:00,40.6,23.0,29.23,East,90,3.0,4.0,49,0.00,,,0.00,meteohub,2013-03-06 15:06:00,
2013-03-06 10:11:00,41.0,23.4,29.23,East,90,2.0,4.0,49,0.00,,,0.00,meteohub,2013-03-06 15:11:00,
2013-03-06 10:16:00,40.3,21.7,29.23,ENE,68,4.0,4.0,47,0.00,,,0.00,meteohub,2013-03-06 15:16:00,
2013-03-06 10:21:00,40.5,22.3,29.23,NE,45,2.0,4.0,48,0.00,,,0.00,meteohub,2013-03-06 15:21:00,
2013-03-06 10:26:00,40.8,23.2,29.23,NW,315,4.0,5.0,49,0.00,,,0.00,meteohub,2013-03-06 15:26:00,
2013-03-06 10:31:00,41.7,24.1,29.23,North,0,3.0,5.0,49,0.00,,,0.00,meteohub,2013-03-06 15:31:00,
2013-03-06 10:36:00,41.4,23.2,29.21,ENE,68,2.0,5.0,48,0.00,,,0.00,meteohub,2013-03-06 15:36:00,
2013-03-06 10:41:00,42.1,23.9,29.21,ENE,68,2.0,5.0,48,0.00,,,0.00,meteohub,2013-03-06 15:41:00,
2013-03-06 10:46:00,42.4,24.3,29.21,East,90,2.0,5.0,48,0.00,,,0.00,meteohub,2013-03-06 15:46:00,
2013-03-06 10:51:00,43.2,23.9,29.23,North,0,4.0,5.0,46,0.00,,,0.00,meteohub,2013-03-06 15:51:00,
2013-03-06 10:56:00,42.4,22.1,29.23,ENE,68,3.0,5.0,44,0.00,,,0.00,meteohub,2013-03-06 15:56:00,
2013-03-06 11:01:00,43.5,23.7,29.23,East,90,1.0,5.0,45,0.00,,,0.00,meteohub,2013-03-06 16:01:00,
2013-03-06 11:06:00,43.5,23.7,29.23,NW,315,1.0,5.0,45,0.00,,,0.00,meteohub,2013-03-06 16:06:00,
2013-03-06 11:11:00,41.9,22.1,29.23,ENE,68,3.0,5.0,45,0.00,,,0.00,meteohub,2013-03-06 16:11:00,
2013-03-06 11:16:00,42.1,22.3,29.23,NW,315,1.0,6.0,45,0.00,,,0.00,meteohub,2013-03-06 16:16:00,
2013-03-06 11:21:00,43.2,23.9,29.23,West,270,2.0,6.0,46,0.00,,,0.00,meteohub,2013-03-06 16:21:00,
2013-03-06 11:26:00,42.4,22.6,29.23,East,90,4.0,4.0,45,0.00,,,0.00,meteohub,2013-03-06 16:26:00,
2013-03-06 11:31:00,41.5,22.3,29.23,ENE,68,3.0,6.0,46,0.00,,,0.00,meteohub,2013-03-06 16:31:00,
2013-03-06 11:36:00,43.3,24.1,29.23,NNE,22,3.0,6.0,46,0.00,,,0.00,meteohub,2013-03-06 16:36:00,
2013-03-06 11:41:00,44.4,24.4,29.23,ENE,68,2.0,6.0,45,0.00,,,0.00,meteohub,2013-03-06 16:41:00,
2013-03-06 11:46:00,45.1,25.2,29.23,East,90,1.0,6.0,45,0.00,,,0.00,meteohub,2013-03-06 16:46:00,
2013-03-06 11:51:00,45.5,24.4,29.23,NE,45,2.0,3.0,43,0.00,,,0.00,meteohub,2013-03-06 16:51:00,
2013-03-06 11:56:00,46.2,24.4,29.23,ENE,68,4.0,4.0,42,0.00,,,0.00,meteohub,2013-03-06 16:56:00,
2013-03-06 12:01:00,44.6,23.0,29.23,NE,45,2.0,4.0,42,0.00,,,0.00,meteohub,2013-03-06 17:01:00,
2013-03-06 12:06:00,46.0,24.3,29.23,East,90,5.0,5.0,42,0.00,,,0.00,meteohub,2013-03-06 17:06:00,
2013-03-06 12:11:00,45.9,24.1,29.23,NE,45,1.0,5.0,42,0.00,,,0.00,meteohub,2013-03-06 17:11:00,
2013-03-06 12:16:00,46.4,25.2,29.23,North,0,2.0,5.0,43,0.00,,,0.00,meteohub,2013-03-06 17:16:00,
2013-03-06 12:21:00,47.3,24.8,29.26,East,90,4.0,5.0,41,0.00,,,0.00,meteohub,2013-03-06 17:21:00,
2013-03-06 12:26:00,45.1,22.8,29.26,East,90,3.0,4.0,41,0.00,,,0.00,meteohub,2013-03-06 17:26:00,
2013-03-06 12:32:00,46.0,24.8,29.26,ESE,112,0.0,4.0,43,0.00,,,0.00,meteohub,2013-03-06 17:32:00,
2013-03-06 12:37:00,47.1,25.3,29.26,East,90,2.0,4.0,42,0.00,,,0.00,meteohub,2013-03-06 17:37:00,
2013-03-06 12:42:00,47.8,25.3,29.26,East,90,3.0,4.0,41,0.00,,,0.00,meteohub,2013-03-06 17:42:00,
2013-03-06 12:47:00,47.3,24.8,29.26,SW,225,0.0,4.0,41,0.00,,,0.00,meteohub,2013-03-06 17:47:00,
2013-03-06 12:52:00,46.0,24.3,29.26,East,90,1.0,4.0,42,0.00,,,0.00,meteohub,2013-03-06 17:52:00,
2013-03-06 12:57:00,48.0,25.0,29.26,West,270,1.0,3.0,40,0.00,,,0.00,meteohub,2013-03-06 17:57:00,
2013-03-06 13:02:00,48.2,25.0,29.26,North,0,2.0,3.0,40,0.00,,,0.00,meteohub,2013-03-06 18:02:00,
2013-03-06 13:07:00,46.6,23.5,29.26,NW,315,1.0,3.0,40,0.00,,,0.00,meteohub,2013-03-06 18:07:00,
2013-03-06 13:12:00,45.5,23.2,29.26,East,90,2.0,3.0,41,0.00,,,0.00,meteohub,2013-03-06 18:12:00,
2013-03-06 13:17:00,45.0,22.8,29.26,ESE,112,1.0,3.0,41,0.00,,,0.00,meteohub,2013-03-06 18:17:00,
2013-03-06 13:22:00,46.8,24.4,29.26,NW,315,2.0,3.0,41,0.00,,,0.00,meteohub,2013-03-06 18:22:00,
2013-03-06 13:27:00,47.3,23.7,29.26,West,270,3.0,3.0,39,0.00,,,0.00,meteohub,2013-03-06 18:27:00,
2013-03-06 13:32:00,49.8,26.6,29.26,East,90,2.0,5.0,40,0.00,,,0.00,meteohub,2013-03-06 18:32:00,
2013-03-06 13:37:00,49.3,24.8,29.26,NW,315,4.0,5.0,38,0.00,,,0.00,meteohub,2013-03-06 18:37:00,
2013-03-06 13:42:00,47.3,23.7,29.26,West,270,1.0,5.0,39,0.00,,,0.00,meteohub,2013-03-06 18:42:00,
2013-03-06 13:47:00,46.2,23.4,29.26,East,90,0.0,4.0,40,0.00,,,0.00,meteohub,2013-03-06 18:47:00,
2013-03-06 13:52:00,45.7,23.4,29.26,West,270,1.0,4.0,41,0.00,,,0.00,meteohub,2013-03-06 18:52:00,
2013-03-06 13:57:00,44.8,21.9,29.26,West,270,2.0,3.0,40,0.00,,,0.00,meteohub,2013-03-06 18:57:00,
2013-03-06 14:02:00,45.0,22.8,29.26,NNE,22,2.0,4.0,41,0.00,,,0.00,meteohub,2013-03-06 19:02:00,
2013-03-06 14:07:00,44.6,22.5,29.26,WSW,248,2.0,4.0,41,0.00,,,0.00,meteohub,2013-03-06 19:07:00,
2013-03-06 14:12:00,45.0,23.4,29.26,WSW,248,1.0,4.0,42,0.00,,,0.00,meteohub,2013-03-06 19:12:00,
2013-03-06 14:17:00,45.1,23.5,29.26,West,270,2.0,4.0,42,0.00,,,0.00,meteohub,2013-03-06 19:17:00,
2013-03-06 14:22:00,44.8,23.2,29.26,NNW,338,1.0,4.0,42,0.00,,,0.00,meteohub,2013-03-06 19:22:00,
2013-03-06 14:27:00,44.1,22.5,29.26,West,270,0.0,3.0,42,0.00,,,0.00,meteohub,2013-03-06 19:27:00,
2013-03-06 14:32:00,44.1,22.5,29.26,West,270,0.0,3.0,42,0.00,,,0.00,meteohub,2013-03-06 19:32:00,
2013-03-06 14:37:00,43.7,22.6,29.26,NNW,338,0.0,0.0,43,0.00,,,0.00,meteohub,2013-03-06 19:37:00,
2013-03-06 14:42:00,43.7,22.6,-100.00,NNW,338,0.0,0.0,43,0.00,,,0.00,meteohub,2013-03-06 19:42:00,
2013-03-06 15:13:00,41.5,21.7,29.26,North,0,0.0,1.0,45,0.00,,,0.00,meteohub,2013-03-06 20:13:00,
2013-03-06 15:18:00,41.5,21.7,29.26,East,90,1.0,1.0,45,0.00,,,0.00,meteohub,2013-03-06 20:18:00,
2013-03-06 15:23:00,41.5,22.3,29.26,East,90,3.0,3.0,46,0.00,,,0.00,meteohub,2013-03-06 20:23:00,
2013-03-06 15:28:00,41.7,22.5,29.26,East,90,0.0,3.0,46,0.00,,,0.00,meteohub,2013-03-06 20:28:00,
2013-03-06 15:33:00,41.7,22.5,29.26,East,90,1.0,3.0,46,0.00,,,0.00,meteohub,2013-03-06 20:33:00,
2013-03-06 15:38:00,41.5,22.3,29.29,NNW,338,0.0,3.0,46,0.00,,,0.00,meteohub,2013-03-06 20:38:00,
2013-03-06 15:43:00,41.5,22.3,29.29,North,0,1.0,3.0,46,0.00,,,0.00,meteohub,2013-03-06 20:43:00,
2013-03-06 15:48:00,41.5,22.8,29.29,NW,315,0.0,3.0,47,0.00,,,0.00,meteohub,2013-03-06 20:48:00,
2013-03-06 15:53:00,41.5,22.8,29.29,NE,45,0.0,2.0,47,0.00,,,0.00,meteohub,2013-03-06 20:53:00,
2013-03-06 15:58:00,41.5,22.8,29.29,ENE,68,0.0,2.0,47,0.00,,,0.00,meteohub,2013-03-06 20:58:00,
2013-03-06 16:03:00,41.2,22.5,29.29,East,90,0.0,2.0,47,0.00,,,0.00,meteohub,2013-03-06 21:03:00,
2013-03-06 16:08:00,41.0,22.3,29.26,NE,45,0.0,2.0,47,0.00,,,0.00,meteohub,2013-03-06 21:08:00,
2013-03-06 16:13:00,41.0,22.8,29.26,NNW,338,0.0,2.0,48,0.00,,,0.00,meteohub,2013-03-06 21:13:00,
2013-03-06 16:18:00,40.8,22.6,29.26,North,0,0.0,2.0,48,0.00,,,0.00,meteohub,2013-03-06 21:18:00,
2013-03-06 16:23:00,41.0,22.8,29.26,NE,45,2.0,2.0,48,0.00,,,0.00,meteohub,2013-03-06 21:23:00,
2013-03-06 16:29:00,41.0,22.8,29.26,North,0,0.0,2.0,48,0.00,,,0.00,meteohub,2013-03-06 21:29:00,
2013-03-06 16:34:00,41.0,22.8,29.26,NW,315,1.0,2.0,48,0.00,,,0.00,meteohub,2013-03-06 21:34:00,
2013-03-06 16:39:00,41.0,22.8,29.29,NW,315,2.0,2.0,48,0.00,,,0.00,meteohub,2013-03-06 21:39:00,
2013-03-06 16:44:00,41.0,22.8,29.29,SE,135,0.0,2.0,48,0.00,,,0.00,meteohub,2013-03-06 21:44:00,
2013-03-06 16:49:00,40.8,23.2,29.29,NE,45,1.0,2.0,49,0.00,,,0.00,meteohub,2013-03-06 21:49:00,
2013-03-06 16:54:00,41.0,22.8,29.29,North,0,0.0,2.0,48,0.00,,,0.00,meteohub,2013-03-06 21:54:00,
2013-03-06 16:59:00,41.0,22.8,29.29,North,0,1.0,2.0,48,0.00,,,0.00,meteohub,2013-03-06 21:59:00,
2013-03-06 17:04:00,40.8,23.2,29.29,ENE,68,0.0,2.0,49,0.00,,,0.00,meteohub,2013-03-06 22:04:00,
2013-03-06 17:09:00,40.8,23.2,29.29,East,90,0.0,2.0,49,0.00,,,0.00,meteohub,2013-03-06 22:09:00,
2013-03-06 17:14:00,41.0,22.8,29.29,ENE,68,2.0,2.0,48,0.00,,,0.00,meteohub,2013-03-06 22:14:00,
2013-03-06 17:19:00,40.5,22.8,29.29,NW,315,0.0,2.0,49,0.00,,,0.00,meteohub,2013-03-06 22:19:00,
2013-03-06 17:24:00,40.1,22.5,29.26,NNE,22,0.0,2.0,49,0.00,,,0.00,meteohub,2013-03-06 22:24:00,
2013-03-06 17:29:00,39.9,22.3,29.26,NNE,22,0.0,2.0,49,0.00,,,0.00,meteohub,2013-03-06 22:29:00,
2013-03-06 17:34:00,39.7,22.1,29.26,NNE,22,0.0,2.0,49,0.00,,,0.00,meteohub,2013-03-06 22:34:00,
2013-03-06 17:39:00,39.6,22.1,29.29,NW,315,0.0,1.0,49,0.00,,,0.00,meteohub,2013-03-06 22:39:00,
2013-03-06 17:44:00,39.4,21.9,29.29,NW,315,0.0,1.0,49,0.00,,,0.00,meteohub,2013-03-06 22:44:00,
2013-03-06 17:49:00,39.2,22.1,29.29,NW,315,0.0,1.0,50,0.00,,,0.00,meteohub,2013-03-06 22:49:00,
2013-03-06 17:54:00,39.2,22.1,29.29,NW,315,0.0,0.0,50,0.00,,,0.00,meteohub,2013-03-06 22:54:00,
2013-03-06 17:59:00,39.0,21.9,29.29,NW,315,0.0,2.0,50,0.00,,,0.00,meteohub,2013-03-06 22:59:00,
2013-03-06 18:04:00,38.8,21.9,29.29,NW,315,0.0,2.0,50,0.00,,,0.00,meteohub,2013-03-06 23:04:00,
2013-03-06 18:09:00,38.7,22.1,29.29,NW,315,0.0,2.0,51,0.00,,,0.00,meteohub,2013-03-06 23:09:00,
2013-03-06 18:14:00,38.5,21.9,29.29,NW,315,0.0,0.0,51,0.00,,,0.00,meteohub,2013-03-06 23:14:00,
2013-03-06 18:19:00,38.3,21.7,29.29,East,90,0.0,0.0,51,0.00,,,0.00,meteohub,2013-03-06 23:19:00,
2013-03-06 18:24:00,37.8,21.4,29.29,NW,315,0.0,2.0,51,0.00,,,0.00,meteohub,2013-03-06 23:24:00,
2013-03-06 18:29:00,37.6,21.6,29.29,ENE,68,0.0,2.0,52,0.00,,,0.00,meteohub,2013-03-06 23:29:00,
2013-03-06 18:34:00,37.2,21.7,29.29,ENE,68,1.0,2.0,53,0.00,,,0.00,meteohub,2013-03-06 23:34:00,
2013-03-06 18:39:00,36.9,21.4,29.29,NE,45,0.0,2.0,53,0.00,,,0.00,meteohub,2013-03-06 23:39:00,
2013-03-06 18:44:00,36.7,21.2,29.29,ENE,68,1.0,2.0,53,0.00,,,0.00,meteohub,2013-03-06 23:44:00,
2013-03-06 18:49:00,36.5,21.6,29.29,ENE,68,0.0,2.0,54,0.00,,,0.00,meteohub,2013-03-06 23:49:00,
2013-03-06 18:54:00,36.3,21.7,29.29,East,90,0.0,2.0,55,0.00,,,0.00,meteohub,2013-03-06 23:54:00,
2013-03-06 18:59:00,36.1,21.6,29.29,North,0,0.0,3.0,55,0.00,,,0.00,meteohub,2013-03-06 23:59:00,
2013-03-06 19:04:00,36.0,21.4,29.29,North,0,0.0,3.0,55,0.00,,,0.00,meteohub,2013-03-07 00:04:00,
2013-03-06 19:09:00,35.8,21.2,29.32,NE,45,0.0,3.0,55,0.00,,,0.00,meteohub,2013-03-07 00:09:00,
2013-03-06 19:14:00,35.6,21.6,29.32,NW,315,0.0,2.0,56,0.00,,,0.00,meteohub,2013-03-07 00:14:00,
2013-03-06 19:19:00,35.6,21.6,29.32,NW,315,0.0,1.0,56,0.00,,,0.00,meteohub,2013-03-07 00:19:00,
2013-03-06 19:24:00,35.6,21.9,29.32,NW,315,0.0,0.0,57,0.00,,,0.00,meteohub,2013-03-07 00:24:00,
2013-03-06 19:29:00,35.4,21.7,29.32,NW,315,1.0,2.0,57,0.00,,,0.00,meteohub,2013-03-07 00:29:00,
2013-03-06 19:34:00,35.4,21.7,29.32,NNW,338,0.0,3.0,57,0.00,,,0.00,meteohub,2013-03-07 00:34:00,
2013-03-06 19:39:00,35.4,22.1,29.32,NW,315,0.0,3.0,58,0.00,,,0.00,meteohub,2013-03-07 00:39:00,
2013-03-06 19:44:00,35.2,21.9,29.32,NW,315,2.0,3.0,58,0.00,,,0.00,meteohub,2013-03-07 00:44:00,
2013-03-06 19:49:00,35.2,21.9,29.32,NW,315,2.0,2.0,58,0.00,,,0.00,meteohub,2013-03-07 00:49:00,
2013-03-06 19:55:00,35.2,22.5,29.35,NW,315,0.0,3.0,59,0.00,,,0.00,meteohub,2013-03-07 00:55:00,
2013-03-06 20:00:00,35.1,22.3,29.35,WSW,248,0.0,3.0,59,0.00,,,0.00,meteohub,2013-03-07 01:00:00,
2013-03-06 20:05:00,35.1,22.3,29.35,NW,315,2.0,3.0,59,0.00,,,0.00,meteohub,2013-03-07 01:05:00,
2013-03-06 20:10:00,35.1,22.6,29.35,NW,315,0.0,3.0,60,0.00,,,0.00,meteohub,2013-03-07 01:10:00,
2013-03-06 20:15:00,35.1,22.6,29.35,NW,315,1.0,3.0,60,0.00,,,0.00,meteohub,2013-03-07 01:15:00,
2013-03-06 20:20:00,34.9,22.5,29.35,NW,315,0.0,4.0,60,0.00,,,0.00,meteohub,2013-03-07 01:20:00,
2013-03-06 20:25:00,34.9,22.5,29.35,NW,315,0.0,4.0,60,0.00,,,0.00,meteohub,2013-03-07 01:25:00,
2013-03-06 20:30:00,34.7,22.3,29.35,West,270,0.0,2.0,60,0.00,,,0.00,meteohub,2013-03-07 01:30:00,
2013-03-06 20:35:00,34.5,22.1,29.35,NW,315,0.0,2.0,60,0.00,,,0.00,meteohub,2013-03-07 01:35:00,
2013-03-06 20:40:00,34.3,21.9,29.35,NW,315,0.0,2.0,60,0.00,,,0.00,meteohub,2013-03-07 01:40:00,
2013-03-06 20:45:00,34.0,21.6,29.35,NW,315,0.0,2.0,60,0.00,,,0.00,meteohub,2013-03-07 01:45:00,
2013-03-06 20:50:00,34.0,21.9,29.35,NW,315,0.0,0.0,61,0.00,,,0.00,meteohub,2013-03-07 01:50:00,
2013-03-06 20:55:00,34.0,21.9,29.35,NW,315,0.0,0.0,61,0.00,,,0.00,meteohub,2013-03-07 01:55:00,
2013-03-06 21:00:00,33.8,21.7,29.35,NE,45,1.0,1.0,61,0.00,,,0.00,meteohub,2013-03-07 02:00:00,
2013-03-06 21:05:00,34.0,22.8,29.35,NNW,338,2.0,2.0,63,0.00,,,0.00,meteohub,2013-03-07 02:05:00,
2013-03-06 21:10:00,34.0,23.2,29.35,North,0,1.0,2.0,64,0.00,,,0.00,meteohub,2013-03-07 02:10:00,
2013-03-06 21:15:00,34.0,23.2,29.35,NW,315,0.0,2.0,64,0.00,,,0.00,meteohub,2013-03-07 02:15:00,
2013-03-06 21:20:00,34.0,23.5,29.35,NNW,338,0.0,3.0,65,0.00,,,0.00,meteohub,2013-03-07 02:20:00,
2013-03-06 21:25:00,33.8,23.4,29.35,NW,315,0.0,3.0,65,0.00,,,0.00,meteohub,2013-03-07 02:25:00,
2013-03-06 21:30:00,33.8,23.4,29.35,East,90,1.0,3.0,65,0.00,,,0.00,meteohub,2013-03-07 02:30:00,
2013-03-06 21:35:00,33.8,23.7,29.35,NE,45,1.0,1.0,66,0.00,,,0.00,meteohub,2013-03-07 02:35:00,
2013-03-06 21:40:00,33.8,23.7,29.35,NW,315,0.0,2.0,66,0.00,,,0.00,meteohub,2013-03-07 02:40:00,
2013-03-06 21:45:00,33.8,23.7,29.35,NW,315,0.0,2.0,66,0.00,,,0.00,meteohub,2013-03-07 02:45:00,
2013-03-06 21:50:00,33.8,24.1,29.35,NNW,338,0.0,2.0,67,0.00,,,0.00,meteohub,2013-03-07 02:50:00,
2013-03-06 21:55:00,33.6,23.9,29.35,NNW,338,0.0,2.0,67,0.00,,,0.00,meteohub,2013-03-07 02:55:00,
2013-03-06 22:00:00,33.6,24.3,29.35,NNW,338,0.0,2.0,68,0.00,,,0.00,meteohub,2013-03-07 03:00:00,
2013-03-06 22:05:00,33.6,23.9,29.35,West,270,0.0,0.0,67,0.00,,,0.00,meteohub,2013-03-07 03:05:00,
2013-03-06 22:10:00,33.6,24.3,29.35,West,270,0.0,0.0,68,0.00,,,0.00,meteohub,2013-03-07 03:10:00,
2013-03-06 22:15:00,33.4,24.1,29.35,West,270,0.0,0.0,68,0.00,,,0.00,meteohub,2013-03-07 03:15:00,
2013-03-06 22:20:00,33.4,24.1,29.35,West,270,1.0,0.0,68,0.00,,,0.00,meteohub,2013-03-07 03:20:00,
2013-03-06 22:25:00,33.4,24.4,29.32,West,270,0.0,1.0,69,0.00,,,0.00,meteohub,2013-03-07 03:25:00,
2013-03-06 22:30:00,33.4,24.4,29.32,West,270,0.0,1.0,69,0.00,,,0.00,meteohub,2013-03-07 03:30:00,
2013-03-06 22:35:00,33.4,24.4,29.35,West,270,0.0,1.0,69,0.00,,,0.00,meteohub,2013-03-07 03:35:00,
2013-03-06 22:40:00,33.3,24.3,29.35,West,270,0.0,0.0,69,0.00,,,0.00,meteohub,2013-03-07 03:40:00,
2013-03-06 22:45:00,33.3,24.6,29.35,West,270,0.0,0.0,70,0.00,,,0.00,meteohub,2013-03-07 03:45:00,
2013-03-06 22:50:00,33.1,24.4,29.35,West,270,0.0,0.0,70,0.00,,,0.00,meteohub,2013-03-07 03:50:00,
2013-03-06 22:56:00,33.1,24.4,29.35,West,270,0.0,0.0,70,0.00,,,0.00,meteohub,2013-03-07 03:56:00,
2013-03-06 23:00:00,33.1,24.1,29.35,West,270,0.0,0.0,69,0.00,,,0.00,meteohub,2013-03-07 04:00:00,
2013-03-06 23:06:00,32.9,24.3,29.35,West,270,0.0,0.0,70,0.00,,,0.00,meteohub,2013-03-07 04:06:00,
2013-03-06 23:11:00,32.9,23.9,29.35,West,270,0.0,0.0,69,0.00,,,0.00,meteohub,2013-03-07 04:11:00,
2013-03-06 23:16:00,32.9,24.3,29.35,West,270,0.0,0.0,70,0.00,,,0.00,meteohub,2013-03-07 04:16:00,
2013-03-06 23:21:00,32.9,24.3,29.35,West,270,0.0,0.0,70,0.00,,,0.00,meteohub,2013-03-07 04:21:00,
2013-03-06 23:26:00,32.9,24.3,29.35,West,270,0.0,0.0,70,0.00,,,0.00,meteohub,2013-03-07 04:26:00,
2013-03-06 23:31:00,32.9,24.3,29.35,West,270,0.0,0.0,70,0.00,,,0.00,meteohub,2013-03-07 04:31:00,
2013-03-06 23:36:00,32.7,24.4,29.35,West,270,0.0,0.0,71,0.00,,,0.00,meteohub,2013-03-07 04:36:00,
2013-03-06 23:41:00,32.7,24.8,29.35,West,270,0.0,0.0,72,0.00,,,0.00,meteohub,2013-03-07 04:41:00,
2013-03-06 23:46:00,32.7,24.8,29.35,West,270,0.0,0.0,72,0.00,,,0.00,meteohub,2013-03-07 04:46:00,
2013-03-06 23:51:00,32.7,24.8,29.35,West,270,0.0,0.0,72,0.00,,,0.00,meteohub,2013-03-07 04:51:00,
2013-03-06 23:56:00,32.7,24.8,29.35,West,270,0.0,0.0,72,0.00,,,0.00,meteohub,2013-03-07 04:56:00,